Weather in Naystenyarvi

Russia / Republic of Karelia     62°18′12″N   32°40′47″E
temp.,
°C
wind,
m/s
gust,
m/s
humid.,
%
clouds,
%
prec.,
mm/h
press.,
hPa
HPBL,
m
1 march, mon
mon100:00−3wsw389734 0.0 1015179
03:000w5119767 0.0 1015594
06:00+2w51298100 0.0 1012595
09:00+1w51394100 0.0 1011650
12:00+1w51296100 0.0 1010724
15:00+2w51495100 0.0 1008861
18:00+2w51296100 0.1 1006723
21:00+1w51389100 0.4 1005987
2 march, tue
tue200:00−1wnw5148872 0.1 1005740
03:00−2wnw5148745 0.1 1005667
06:00−3wnw4148921 0.0 1004666
09:00−3wnw5128947 0.0 1006771
12:00−1nw6137567 0.0 10071563
15:00−1nw6136944 0.1 10101543
18:00−4nw3138121 0.0 1011583
21:00−6wnw3108921 0.0 1013277
3 march, wed
wed300:00−6wnw311930 0.0 1013323
03:00−5wnw4129219 0.0 1012412
06:00−5wnw4129277 0.0 1010489
09:00−5wnw4119284 0.0 1011495
12:00−2wnw498694 0.0 1010606
15:00−1w498492 0.0 1008675
18:00−2wsw3792100 0.0 1003443
21:00−2s41097100 3.3 997619
4 march, thu
thu400:00−1wnw61095100 2.2 994692
03:00−4nnw389598 2.9 995377
06:00−5nnw3695100 0.9 996325
09:00−7n399396 1.0 998402
12:00−6n478998 0.1 999642
15:00−5nnw478399 0.2 1001939
18:00−7nw398995 0.1 1002361
21:00−9nw389580 0.1 1004224
5 march, fri
fri500:00−10nw279578 0.0 1004194
03:00−10nw269659 0.1 1006230
06:00−11nw249696 0.1 1007134
09:00−11nnw259596 0.2 1008223
12:00−8nne2390100 0.2 1010453
15:00−8n2484100 0.4 1012677
18:00−11n229099 0.1 101353
21:00−14n229568 0.1 101520